Погода во Фрипорте

Багамские острова     26°31′54″N   78°37′49″W
темп.,
°C
ветер,
м/с
пор.,
м/с
влажн.,
%
обл.,
%
осадки,
мм/ч
давл.,
гПа
погр.,
м
22 января, пт
пт2201:00+22ююз446196 0.0 1018688
04:00+22юз5564100 0.0 1017874
07:00+22ююз566792 0.0 1017918
10:00+22юз667167 0.0 10181040
13:00+22юз667169 0.0 10171001
16:00+23юз66712 0.0 10161014
19:00+23юз55701 0.0 1017784
22:00+23юз55710 0.0 1018818
23 января, сб
сб2301:00+23юз55730 0.0 1017840
04:00+22зсз66740 0.0 1016694
07:00+22зсз44722 0.0 1018812
10:00+22з33703 0.0 1019768
13:00+22зсз33681 0.0 1018666
16:00+22ссз34690 0.0 1017671
19:00+22с44740 0.0 1018779
22:00+22ссв447417 0.0 1019684
24 января, вс
вс2401:00+22ссв23739 0.0 1018608
04:00+22св22751 0.0 1018580
07:00+22в22790 0.0 1018414
10:00+22юз22780 0.1 1020490
13:00+23ююз44758 0.1 1018807
16:00+23ююз337198 0.0 1017805
19:00+23зюз116699 0.1 1018871
22:00+23вюв116641 0.0 1019337
25 января, пн
пн2501:00+23юв237121 0.0 1018437
04:00+23юв33746 0.0 1017571
07:00+23ююв447524 0.0 1017694
10:00+23ююв567540 0.0 1018794
13:00+23ююв677633 0.0 1016810
16:00+23ю677854 0.0 1015806
19:00+23ю567977 0.0 1016708
22:00+23ююз567797 0.0 1017597
26 января, вт
вт2601:00+23ююз678051 0.0 1016699
04:00+23юз56792 0.0 1016718
07:00+23ююз55766 0.0 1017693
10:00+23ююз44761 0.0 1018689
13:00+23юз44763 0.0 1017684
16:00+24зюз447677 0.0 1016656
19:00+24ююз227479 0.0 1017347
22:00+23ю227698 0.0 1018328